WetterOnline ( https://www.wetteronline.de )

Wetter aktuell Ostrohe

Aktuelles Wetter: Heide/Elpersbüttel (5m)

6-stündlich | Neueste Meldungen
Ortszeit Temperatur Wetter
So, 20.06. 20:00 16.8° C leicht bewölkt
So, 20.06. 14:00 21.3° C bedeckt
So, 20.06. 8:00 18.5° C leichter Regen
So, 20.06. 2:00 15.4° C wolkig
Sa, 19.06. 20:00 18.3° C wolkig
Sa, 19.06. 14:00 22.3° C fast wolkenlos
Sa, 19.06. 8:00 22.9° C wolkenlos
Sa, 19.06. 2:00 20.3° C wolkig
Ortszeit Temperatur Wetter
So, 20.06. 22:00 15.0° C fast wolkenlos
So, 20.06. 21:30 15.9° C bewölkt
So, 20.06. 21:20 15.9° C bewölkt
So, 20.06. 21:10 16.2° C bedeckt
So, 20.06. 21:00 16.3° C leicht bewölkt
So, 20.06. 20:50 16.3° C wolkig
So, 20.06. 20:30 16.8° C wolkig
So, 20.06. 20:00 16.8° C leicht bewölkt
Ortszeit Relative Feuchte Sichtweite
So, 20.06. 20:00 79% 65 km
So, 20.06. 14:00 78% 50 km
So, 20.06. 8:00 98% 4.7 km
So, 20.06. 2:00 96% 9 km
Sa, 19.06. 20:00 86% 27 km
Sa, 19.06. 14:00 77% 40 km
Sa, 19.06. 8:00 81% 29 km
Sa, 19.06. 2:00 86% 35 km
Ortszeit Relative Feuchte Sichtweite
So, 20.06. 22:00 87% 50 km
So, 20.06. 21:30 82% 55 km
So, 20.06. 21:20 82% -
So, 20.06. 21:10 82% -
So, 20.06. 21:00 81% 55 km
So, 20.06. 20:50 81% -
So, 20.06. 20:30 81% 50 km
So, 20.06. 20:00 79% 65 km
Ortszeit Niederschlagsmenge Niederschlagsart
So, 20.06. 20:00 0.5 l/m2 in 12 Std. -
So, 20.06. 14:00 0.5 l/m2 in 6 Std. Regen
So, 20.06. 8:00 6 l/m2 in 12 Std. Regen
So, 20.06. 2:00 0.0 l/m2 in 6 Std. -
Sa, 19.06. 20:00 0.0 l/m2 in 12 Std. -
Sa, 19.06. 14:00 0.0 l/m2 in 6 Std. -
Sa, 19.06. 8:00 0.1 l/m2 in 12 Std. -
Sa, 19.06. 2:00 0.1 l/m2 in 6 Std. Regen
Ortszeit Niederschlagsmenge Niederschlagsart
So, 20.06. 22:00 0.0 l/m2 in 1 Std. -
So, 20.06. 21:30 0.0 l/m2 in 1 Std. -
So, 20.06. 21:20 keine Meldung -
So, 20.06. 21:10 keine Meldung -
So, 20.06. 21:00 0.0 l/m2 in 1 Std. -
So, 20.06. 20:50 keine Meldung -
So, 20.06. 20:30 0.0 l/m2 in 1 Std. -
So, 20.06. 20:00 0.0 l/m2 in 1 Std. -
Ortszeit Stärke Spitze Richtung
km/h Bft. km/h Grad Sektor
So, 20.06. 20:00 17 3 54 290° W
So, 20.06. 14:00 35 5 50 230° SW
So, 20.06. 8:00 4 1 36 10° N
So, 20.06. 2:00 7 2 29 30° NO
Sa, 19.06. 20:00 20 4 31 300° NW
Sa, 19.06. 14:00 22 4 47 280° W
Sa, 19.06. 8:00 17 3 22 200° S
Sa, 19.06. 2:00 13 3 50 10° N
Ortszeit Stärke Spitze Richtung
km/h Bft. km/h Grad Sektor
So, 20.06. 22:00 13 3 19 340° N
So, 20.06. 21:30 11 2 17 320° NW
So, 20.06. 21:20 11 2 - 320° NW
So, 20.06. 21:10 11 2 - 320° NW
So, 20.06. 21:00 13 3 24 320° NW
So, 20.06. 20:50 13 3 - 320° NW
So, 20.06. 20:30 14 3 25 310° NW
So, 20.06. 20:00 17 3 24 290° W
Ortszeit Untergrenze Bedeckung Gattung
total tief tief mittel hoch
So, 20.06. 20:00 7800 m 6/8 0/8 - - -
So, 20.06. 14:00 600 m 8/8 8/8 - - -
So, 20.06. 8:00 30 m 7/8 7/8 - - -
So, 20.06. 2:00 450 m 7/8 4/8 - - -
Sa, 19.06. 20:00 360 m 6/8 6/8 - - -
Sa, 19.06. 14:00 10500 m 2/8 0/8 - - -
Sa, 19.06. 8:00 - 0/8 0/8 - - -
Sa, 19.06. 2:00 2400 m 7/8 1/8 - - -
Ortszeit Bedeckungsgrad in Achtel und Wolkenuntergrenze
So, 20.06. 22:00 1(7500m)
So, 20.06. 21:30 1(5100m) 7(6600m) 7(8400m)
So, 20.06. 21:20 1(5100m) 7(6600m) 7(8400m)
So, 20.06. 21:10 2(5100m) 8(6600m) 8(8400m)
So, 20.06. 21:00 8(7200m) 8(8700m) 8(8400m)
So, 20.06. 20:50 8(7200m) 8(8700m)
So, 20.06. 20:30 8(7500m)
So, 20.06. 20:00 4(7800m) 6(8700m)
Ortszeit Luftdruck NN (hPa) Tendenz (hPa in 3 Std.)
So, 20.06. 20:00 1010 + 0,7
So, 20.06. 14:00 1007 + 1,7
So, 20.06. 8:00 1007 - 1,6
So, 20.06. 2:00 1012 - 1,3
Sa, 19.06. 20:00 1014 + 0,3
Sa, 19.06. 14:00 1014 + 0,4
Sa, 19.06. 8:00 1012 + 1,0
Sa, 19.06. 2:00 1012 + 0,3
Ortszeit Luftdruck NN (hPa) Tendenz (hPa in 3 Std.)
So, 20.06. 22:00 1010 + 0,2
So, 20.06. 21:30 1010 + 0,2
So, 20.06. 21:20 1010 keine Meldung
So, 20.06. 21:10 1010 keine Meldung
So, 20.06. 21:00 1009 - 0,3
So, 20.06. 20:50 1009 keine Meldung
So, 20.06. 20:30 1010 + 0,6
So, 20.06. 20:00 1010 + 0,7
Ortszeit Schneehöhe (cm)
So, 20.06. 20:00 -
So, 20.06. 14:00 -
So, 20.06. 8:00 -
So, 20.06. 2:00 -
Sa, 19.06. 20:00 -
Sa, 19.06. 14:00 -
Sa, 19.06. 8:00 -
Sa, 19.06. 2:00 -
Ortszeit Schneehöhe (cm)
So, 20.06. 22:00 -
So, 20.06. 21:30 -
So, 20.06. 21:20 -
So, 20.06. 21:10 -
So, 20.06. 21:00 -
So, 20.06. 20:50 -
So, 20.06. 20:30 -
So, 20.06. 20:00 -
Link zu dieser Seite / Seite empfehlen

Das Wetter in ...